Hourly Weather Bolshie Polyanki

Today, 19 June, Saturday

Time Temperature Precipitation Wind Pressure Humidity
00:00 +13°C° 0 mm 1 mps 756 mmHg 75%
01:00 +13°C° 0 mm 2 mps 756 mmHg 76%
02:00 +12°C° 0 mm 2 mps 756 mmHg 77%
03:00 +12°C° 0 mm 2 mps 756 mmHg 77%
04:00 +13°C° 0 mm 3 mps 756 mmHg 77%
05:00 +14°C° 0 mm 3 mps 756 mmHg 76%
06:00 +16°C° 0 mm 3 mps 756 mmHg 75%
07:00 +17°C° 0 mm 4 mps 756 mmHg 70%
08:00 +19°C° 0 mm 4 mps 756 mmHg 65%
09:00 +20°C° 0 mm 5 mps 756 mmHg 61%
10:00 +21°C° 0 mm 5 mps 755 mmHg 59%
11:00 +22°C° 0 mm 6 mps 755 mmHg 58%
12:00 +23°C° 0 mm 6 mps 755 mmHg 56%
13:00 +24°C° 0 mm 6 mps 754 mmHg 57%
14:00 +24°C° 0 mm 6 mps 754 mmHg 59%
15:00 +26°C° 0 mm 6 mps 753 mmHg 59%
16:00 +24°C° 0 mm 6 mps 753 mmHg 63%
17:00 +25°C° 0 mm 5 mps 753 mmHg 67%
18:00 +23°C° 0 mm 5 mps 752 mmHg 71%
19:00 +22°C° 0 mm 4 mps 752 mmHg 77%
20:00 +20°C° 0 mm 4 mps 752 mmHg 82%
21:00 +19°C° 0 mm 4 mps 752 mmHg 88%
22:00 +19°C° 0 mm 4 mps 752 mmHg 88%
23:00 +18°C° 0 mm 4 mps 752 mmHg 88%

Tomorrow, 20 June, Sunday

Time Temperature Precipitation Wind Pressure Humidity
00:00 +18°C° 0 mm 4 mps 752 mmHg 88%
01:00 +18°C° 0 mm 4 mps 752 mmHg 90%
02:00 +17°C° 0 mm 4 mps 752 mmHg 92%
03:00 +17°C° 0 mm 3 mps 752 mmHg 94%
04:00 +18°C° 0 mm 3 mps 753 mmHg 90%
05:00 +19°C° 0 mm 3 mps 753 mmHg 86%
06:00 +20°C° 0 mm 3 mps 753 mmHg 83%
07:00 +22°C° 0 mm 4 mps 753 mmHg 78%
08:00 +23°C° 0 mm 4 mps 753 mmHg 72%
09:00 +26°C° 0 mm 4 mps 753 mmHg 67%
10:00 +27°C° 0 mm 4 mps 753 mmHg 64%
11:00 +27°C° 0 mm 4 mps 753 mmHg 61%
12:00 +28°C° 0 mm 4 mps 753 mmHg 58%
13:00 +29°C° 0 mm 4 mps 753 mmHg 57%
14:00 +29°C° 0 mm 3 mps 753 mmHg 56%
15:00 +29°C° 0 mm 3 mps 753 mmHg 55%
16:00 +29°C° 0 mm 3 mps 753 mmHg 60%
17:00 +28°C° 0 mm 2 mps 753 mmHg 65%
18:00 +27°C° 0 mm 2 mps 753 mmHg 71%
19:00 +26°C° 0 mm 1 mps 753 mmHg 74%
20:00 +24°C° 0 mm 1 mps 753 mmHg 77%
21:00 +23°C° 0 mm 1 mps 753 mmHg 81%
22:00 +23°C° 0 mm 1 mps 753 mmHg 82%
23:00 +22°C° 0 mm 1 mps 753 mmHg 82%

Day after tomorrow, 21 June, Monday

Time Temperature Precipitation Wind Pressure Humidity
00:00 +22°C° 0 mm 1 mps 753 mmHg 83%
01:00 +22°C° 0.1 mm 1 mps 753 mmHg 85%
02:00 +21°C° 0.1 mm 1 mps 754 mmHg 87%
03:00 +21°C° 0.1 mm 1 mps 754 mmHg 89%
04:00 +21°C° 0.1 mm 2 mps 754 mmHg 88%
05:00 +21°C° 0.1 mm 2 mps 754 mmHg 87%
06:00 +23°C° 0.1 mm 2 mps 754 mmHg 86%
07:00 +24°C° 0.5 mm 2 mps 754 mmHg 81%
08:00 +25°C° 0.5 mm 3 mps 754 mmHg 76%
09:00 +27°C° 0.5 mm 3 mps 754 mmHg 71%
10:00 +27°C° 0.3 mm 3 mps 754 mmHg 67%
11:00 +28°C° 0.3 mm 3 mps 754 mmHg 63%
12:00 +29°C° 0.3 mm 3 mps 754 mmHg 58%
13:00 +29°C° 0 mm 3 mps 754 mmHg 57%
14:00 +30°C° 0 mm 3 mps 754 mmHg 55%
15:00 +30°C° 0 mm 3 mps 753 mmHg 54%
16:00 +29°C° 0 mm 3 mps 753 mmHg 59%
17:00 +29°C° 0 mm 3 mps 753 mmHg 65%
18:00 +28°C° 0 mm 3 mps 753 mmHg 71%
19:00 +26°C° 0 mm 3 mps 753 mmHg 72%
20:00 +25°C° 0 mm 3 mps 753 mmHg 74%
21:00 +22°C° 0 mm 3 mps 753 mmHg 75%
22:00 +22°C° 0 mm 3 mps 753 mmHg 76%
23:00 +21°C° 0 mm 3 mps 753 mmHg 77%

22 June, Tuesday

Time Temperature Precipitation Wind Pressure Humidity
00:00 +21°C° 0 mm 2 mps 753 mmHg 78%
01:00 +21°C° 0 mm 2 mps 753 mmHg 81%
02:00 +20°C° 0 mm 2 mps 753 mmHg 84%
03:00 +20°C° 0 mm 2 mps 753 mmHg 86%
04:00 +21°C° 0 mm 2 mps 753 mmHg 85%
05:00 +22°C° 0 mm 3 mps 753 mmHg 83%
06:00 +24°C° 0 mm 3 mps 753 mmHg 81%
07:00 +26°C° 0 mm 3 mps 753 mmHg 76%
08:00 +27°C° 0 mm 3 mps 753 mmHg 72%
09:00 +28°C° 0 mm 3 mps 753 mmHg 67%
10:00 +29°C° 0.1 mm 3 mps 753 mmHg 64%
11:00 +29°C° 0.1 mm 4 mps 753 mmHg 60%
12:00 +30°C° 0.1 mm 4 mps 753 mmHg 57%
13:00 +30°C° 0 mm 4 mps 753 mmHg 56%
14:00 +31°C° 0 mm 3 mps 753 mmHg 55%
15:00 +31°C° 0 mm 3 mps 753 mmHg 54%
16:00 +30°C° 0 mm 3 mps 753 mmHg 60%
17:00 +29°C° 0 mm 3 mps 753 mmHg 66%
18:00 +28°C° 0 mm 3 mps 752 mmHg 73%
19:00 +27°C° 0 mm 2 mps 752 mmHg 75%
20:00 +25°C° 0 mm 2 mps 752 mmHg 77%
21:00 +24°C° 0 mm 2 mps 753 mmHg 79%
22:00 +24°C° 0 mm 2 mps 752 mmHg 80%
23:00 +23°C° 0 mm 2 mps 752 mmHg 80%

23 June, Wednesday

Time Temperature Precipitation Wind Pressure Humidity
00:00 +23°C° 0 mm 2 mps 752 mmHg 81%
01:00 +23°C° 0 mm 2 mps 752 mmHg 83%
02:00 +21°C° 0 mm 3 mps 752 mmHg 85%
03:00 +20°C° 0 mm 3 mps 752 mmHg 87%
04:00 +21°C° 0 mm 3 mps 752 mmHg 84%
05:00 +23°C° 0 mm 2 mps 752 mmHg 82%
06:00 +24°C° 0 mm 2 mps 752 mmHg 80%
07:00 +26°C° 0 mm 3 mps 752 mmHg 74%
08:00 +27°C° 0 mm 3 mps 752 mmHg 69%
09:00 +28°C° 0 mm 4 mps 752 mmHg 64%
10:00 +29°C° 0 mm 4 mps 752 mmHg 61%
11:00 +29°C° 0 mm 4 mps 752 mmHg 58%
12:00 +30°C° 0 mm 4 mps 752 mmHg 56%
13:00 +30°C° 0.1 mm 4 mps 752 mmHg 54%
14:00 +31°C° 0.1 mm 3 mps 752 mmHg 53%
15:00 +31°C° 0.1 mm 3 mps 752 mmHg 52%
16:00 +30°C° 0.1 mm 3 mps 751 mmHg 58%
17:00 +29°C° 0.1 mm 3 mps 751 mmHg 63%
18:00 +28°C° 0.1 mm 3 mps 751 mmHg 69%
19:00 +26°C° 1.3 mm 3 mps 751 mmHg 76%
20:00 +24°C° 1.3 mm 2 mps 751 mmHg 83%
21:00 +21°C° 1.3 mm 2 mps 752 mmHg 90%
22:00 +21°C° 0.2 mm 2 mps 752 mmHg 91%
23:00 +21°C° 0.2 mm 1 mps 752 mmHg 93%

24 June, Thursday

Time Temperature Precipitation Wind Pressure Humidity
00:00 +20°C° 0.2 mm 1 mps 752 mmHg 94%
01:00 +19°C° 0 mm 2 mps 752 mmHg 94%
02:00 +19°C° 0 mm 2 mps 752 mmHg 94%
03:00 +19°C° 0 mm 2 mps 752 mmHg 93%
04:00 +19°C° 0 mm 2 mps 752 mmHg 91%
05:00 +20°C° 0 mm 2 mps 752 mmHg 89%
06:00 +21°C° 0 mm 2 mps 752 mmHg 86%
07:00 +23°C° 0 mm 2 mps 752 mmHg 81%
08:00 +24°C° 0 mm 2 mps 752 mmHg 75%
09:00 +26°C° 0 mm 2 mps 752 mmHg 70%
10:00 +26°C° 0 mm 2 mps 752 mmHg 67%
11:00 +27°C° 0 mm 2 mps 752 mmHg 64%
12:00 +28°C° 0 mm 2 mps 752 mmHg 62%
13:00 +28°C° 0 mm 2 mps 752 mmHg 61%
14:00 +29°C° 0 mm 2 mps 752 mmHg 60%
15:00 +29°C° 0 mm 2 mps 752 mmHg 59%
16:00 +28°C° 0 mm 2 mps 752 mmHg 63%
17:00 +28°C° 0 mm 2 mps 752 mmHg 68%
18:00 +27°C° 0 mm 2 mps 751 mmHg 72%
19:00 +26°C° 0 mm 2 mps 751 mmHg 75%
20:00 +24°C° 0 mm 3 mps 751 mmHg 79%
21:00 +21°C° 0 mm 3 mps 751 mmHg 82%
22:00 +21°C° 0 mm 2 mps 751 mmHg 82%
23:00 +20°C° 0 mm 2 mps 751 mmHg 81%
Show more